User: anonymous   Login
Location: Caltech
(34.1382°N, 118.1253°W)
Time: 00:59:03
(UTC-07:00)
Language:

SO-67 - Orbit

View from above orbital plane
View from above orbital plane
View from above satellite
View from above satellite

Ground track
Ground track

The orbit data is extracted from the following two-line orbital elements,

1 35870U 09049F   17081.78032157 +.00004519 +00000-0 +75563-4 0  9994
2 35870 097.1093 099.3184 0003769 057.3165 027.8099 15.52410924419811
Epoch (UTC): 22 March 2017 18:43:39
Eccentricity: 0.0003769
inclination: 97.1093°
perigee height: 407 km
apogee height: 412 km
right ascension of ascending node: 99.3184°
argument of perigee: 57.3165°
revolutions per day: 15.52410924
mean anomaly at epoch: 27.8099°
orbit number at epoch: 41981

The dashed part of the orbit path shows where the satellite is in the earth's shadow,  

DLR